Regional Weather Roundup
Issued by NWS

Home | Current Version | Previous Version | Text Only | Print | Product List | Glossary Off
Versions: 1 2 3 4 5 6 7 8 9 10 11 12 13 14 15 16 17 18 19 20 21 22 23 24 25 26 27 28 29 30 31 32 33 34 35 36 37 38 39 40 41 42 43 44 45 46 47 48 49 50

149
ASUS43 KFSD 110310
RWRSD

WEATHER ROUNDUP FOR SOUTH DAKOTA
NATIONAL WEATHER SERVICE SIOUX FALLS SD
900 PM CST SAT DEC 10 2016

NOTE: "FAIR" INDICATES FEW OR NO CLOUDS BELOW 12,000 FEET WITH NO
SIGNIFICANT WEATHER AND/OR OBSTRUCTIONS TO VISIBILITY.


SDZ001>005-009-010-012>017-110400-
NORTHWEST AND NORTH CENTRAL SOUTH DAKOTA

CITY           SKY/WX    TMP DP  RH WIND       PRES   REMARKS
BUFFALO          N/A      3  -2  79 S7        29.73R WCI  -9
FAITH            N/A      2  -1  88 E12       29.80F WCI -15
MOBRIDGE       LGT SNOW   6  -1  73 E6        29.90F WCI  -4
$$

SDZ012>016-024>037-041>051-057-063-072>074-110400-
SOUTHWEST AND SOUTH CENTRAL SOUTH DAKOTA

CITY           SKY/WX    TMP DP  RH WIND       PRES   REMARKS
RAPID CTY ARPT CLOUDY     5   1  83 N10       29.75S WCI -10
PIERRE         CLOUDY    12   8  84 E17       29.83F WCI  -5
CUSTER         CLOUDY    33  26  75 W9        29.54S WCI  25
ELLSWORTH AFB  CLOUDY     5   1  85 N9        29.75  WCI  -9
PHILIP         CLOUDY     7   5  91 NE9       29.81F FOG     WCI  -7
PINE RIDGE     CLOUDY     5   3  91 NE5       29.66S WCI  -4
SPEARFISH      LGT SNOW   5   1  85 CALM      29.70F
WINNER         CLOUDY    23  19  85 E17       29.78S WCI   9
$$

SDZ004>011-016>023-039-040-110400-
NORTHEAST SOUTH DAKOTA

CITY           SKY/WX    TMP DP  RH WIND       PRES   REMARKS
ABERDEEN       LGT SNOW   7   0  73 NE12      30.04S VSB 3/4 WCI  -8
WATERTOWN      SNOW       7   3  84 E13G20    29.99F VSB 1/2 WCI  -9
BROOKINGS      LGT SNOW  10   7  85 E16       29.97F FOG     WCI  -7
SISSETON         N/A      6   2  83 E6        30.12F WCI  -4
$$

SDZ017-020-022-023-036>040-048>070-110400-
SOUTHEAST SOUTH DAKOTA

CITY           SKY/WX    TMP DP  RH WIND       PRES   REMARKS
SIOUX FALLS    LGT SNOW  19  17  92 E10       29.97F FOG     WCI   7
HURON          LGT SNOW  13  11  92 E17       29.94F FOG     WCI  -4
CHAMBERLAIN    CLOUDY    21  19  93 E13       29.85F WCI   9
MITCHELL       CLOUDY    20  18  92 SE14      29.93F WCI   7
YANKTON        CLOUDY    23  18  80 E13       29.91F WCI  11
$$

ABBREVIATIONS USED IN REMARKS
   TC - TEMPERATURE IN CELSIUS
  WCI - WIND CHILL INDEX
   HX - HEAT INDEX
  VSB - VISIBILITY





USA.gov is the U.S. government's official web portal to all federal, state and local government web resources and services.